Ames, IA

6:19 AM CDT on July 28, 2017 (GMT -0500)
Ames Municipal

Weather History for KAMW - April, 2012

Change the Weather History Date:

Thursday, April 12, 2012

  Actual Average Record
Temperature  
Mean Temperature 43 °F 48 °F  
Max Temperature 61 °F 60 °F 85 °F (2014)
Min Temperature 24 °F 37 °F 20 °F (2016)
Degree Days  
Heating Degree Days 22 17  
Month to date heating degree days 153 226  
Since 1 July heating degree days 5085 6382  
Cooling Degree Days 0 0  
Month to date cooling degree days 4 0  
Year to date cooling degree days 19 0  
Moisture  
Dew Point 28 °F    
Average Humidity 58    
Maximum Humidity 88    
Minimum Humidity 27    
Precipitation  
Precipitation 0.00 in 0.10 in 1.12 in (1991)
Month to date precipitation 1.03  
Sea Level Pressure  
Sea Level Pressure 30.13 in    
Wind  
Wind Speed 6 mph (SSE)    
Max Wind Speed 17 mph    
Max Gust Speed 22 mph    
Visibility 10 miles    
Events      
T = Trace of Precipitation, MM = Missing Value Source: NWS Daily Summary

Daily Weather History Graph

Daily Weather History Graph

Search for Another Location

Airport or City:

Trip Planner

Search our weather history database for the weather conditions in past years. The results will help you decide how hot, cold, wet, or windy it might be!

Date:

Astronomy

Apr. 12, 2012 Rise Set
Actual Time 6:38 AM CDT 7:52 PM CDT
Civil Twilight 6:09 AM CDT 8:21 PM CDT
Nautical Twilight 5:34 AM CDT 8:56 PM CDT
Astronomical Twilight 4:58 AM CDT 9:32 PM CDT
Moon 1:44 AM CDT (4/12) 11:30 AM CDT (4/12)
Length of Visible Light 14h 12m
Length of Day
13h 14m
Waning Gibbous, 58% of the Moon is Illuminated
Apr 12
Waning Gibbous
Apr 13
Last Quarter
Apr 21
New
Apr 29
First Quarter
May 5
Full

Hourly Weather History & Observations

Time (CDT) Temp. Windchill Dew Point Humidity Pressure Visibility Wind Dir Wind Speed Gust Speed Precip Events Conditions
12:53 AM 35.1 °F - 21.0 °F 57% 30.24 in 10.0 mi Calm Calm - N/A   Clear
2:53 AM 28.0 °F - 21.9 °F 78% 30.22 in 10.0 mi Calm Calm - N/A   Clear
3:53 AM 30.0 °F - 21.0 °F 69% 30.21 in 10.0 mi Calm Calm - N/A   Clear
4:53 AM 28.9 °F - 21.0 °F 72% 30.22 in 10.0 mi Calm Calm - N/A   Clear
5:53 AM 27.0 °F - 21.0 °F 78% 30.23 in 9.0 mi Calm Calm - N/A   Clear
6:53 AM 25.0 °F - 21.0 °F 85% 30.23 in 10.0 mi Calm Calm - N/A   Clear
7:53 AM 30.9 °F - 27.0 °F 85% 30.23 in 10.0 mi Calm Calm - N/A   Clear
8:53 AM 42.1 °F 38.4 °F 28.9 °F 60% 30.21 in 10.0 mi SE 5.8 mph - N/A   Clear
9:53 AM 51.1 °F - 28.9 °F 43% 30.19 in 10.0 mi SE 11.5 mph - N/A   Clear
10:53 AM 55.0 °F - 27.0 °F 34% 30.18 in 10.0 mi South 11.5 mph 20.7 mph N/A   Clear
11:53 AM 55.9 °F - 28.0 °F 34% 30.16 in 10.0 mi South 13.8 mph - N/A   Mostly Cloudy
12:53 PM 57.9 °F - 28.9 °F 33% 30.14 in 10.0 mi SSE 8.1 mph 17.3 mph N/A   Overcast
1:53 PM 59.0 °F - 28.9 °F 32% 30.12 in 10.0 mi SW 9.2 mph - N/A   Mostly Cloudy
2:53 PM 60.1 °F - 28.9 °F 31% 30.10 in 10.0 mi SSE 8.1 mph - N/A   Mostly Cloudy
3:53 PM 60.1 °F - 28.0 °F 30% 30.08 in 10.0 mi South 9.2 mph - N/A   Mostly Cloudy
4:53 PM 60.1 °F - 27.0 °F 28% 30.06 in 10.0 mi South 9.2 mph - N/A   Mostly Cloudy
5:53 PM 59.0 °F - 28.9 °F 32% 30.06 in 10.0 mi South 9.2 mph - N/A   Overcast
6:53 PM 57.9 °F - 28.9 °F 33% 30.06 in 10.0 mi ESE 8.1 mph - N/A   Overcast
7:53 PM 57.0 °F - 30.0 °F 36% 30.05 in 10.0 mi SSE 8.1 mph - N/A   Overcast
8:53 PM 55.0 °F - 34.0 °F 45% 30.03 in 10.0 mi ESE 5.8 mph - N/A   Overcast
9:53 PM 53.1 °F - 37.0 °F 55% 30.02 in 10.0 mi SE 6.9 mph - N/A   Overcast
10:53 PM 54.0 °F - 34.0 °F 47% 30.00 in 10.0 mi SE 12.7 mph - N/A   Mostly Cloudy
11:53 PM 52.0 °F - 34.0 °F 50% 29.99 in 10.0 mi SE 5.8 mph - N/A   Partly Cloudy